892  
ASUS44 KSHV 251510  
RWRSHV  
 
WEATHER ROUNDUP FOR THE FOUR STATE AREA  
NATIONAL WEATHER SERVICE SHREVEPORT LA  
1000 AM CDT SUN JUN 25 2017  
 
NOTE: "FAIR" INDICATES FEW OR NO CLOUDS BELOW 12000 FEET  
WITH NO SIGNIFICANT WEATHER AND/OR S TO VISIBILITY
.  
 
!LAZ001-LAZ014-TXZ097-251600  
SHREVEPORT...MONROE...TEXARKANA RADIOS  
 
CITY SKY/WX TMP DP RH WIND PRES REMARKS
 
SHREVEPORT LGT RAIN 73 65 75 E10 30.23R  
MONROE LGT RAIN 70 66 87 NE5 30.24R  
NATCHITOCHES CLOUDY 73 66 78 E9 30.22R  
TEXARKANA MOSUNNY 75 65 70 E7 30.25R  

 
 
!LAZ001-LAZ014-TXZ097-251600  
OTHER LOCATIONS...  
 
CITY SKY/WX TMP DP RH WIND PRES REMARKS
 
DOWNTOWN SHV CLOUDY 77 64 64 E5 30.23R  
BOSSIER CITY PTSUNNY 74 63 68 E3 30.23R  
RUSTON CLOUDY 68 64 87 NE6 30.28R  
LITTLE ROCK MOSUNNY 77 62 59 NE3 30.26S  
EL DORADO CLOUDY 73 65 75 E6 30.25R  
JACKSON CLOUDY 75 65 70 NE3 30.23R  
NEW ORLEANS CLOUDY 82 75 79 NE7 30.12S  
HOUSTON CLOUDY 77 72 84 VRB6 30.16R  
LUFKIN CLOUDY 76 68 76 E10 30.20R  
TYLER PTSUNNY 75 69 81 E9 30.22R  
DAL FT WORTH MOSUNNY 79 64 60 E12 30.21S  

 
 
!TXZ136-TXZ165-251600  
TYLER...LUFKIN RADIOS  
 
CITY SKY/WX TMP DP RH WIND PRES REMARKS
 
TYLER PTSUNNY 75 69 81 E9 30.22R  
GILMER CLOUDY 74 64 70 NE7 30.24R  
LONGVIEW PTSUNNY 72 69 90 SE6 30.22R  
LUFKIN CLOUDY 76 68 76 E10 30.20R  

 
 
!TXZ136-TXZ165-251600  
OTHER LOCATIONS...  
 
CITY SKY/WX TMP DP RH WIND PRES REMARKS
 
NACOGDOCHES CLOUDY 75 68 78 MISG 30.19R  
BEAUMONT CLOUDY 81 75 82 E5 30.15R  
HOUSTON CLOUDY 77 72 84 VRB6 30.16R  
COLLEGE STN PTSUNNY 76 74 93 E13 30.18R  
AUSTIN CLOUDY 80 72 76 NE7 30.16R  
DAL FT WORTH MOSUNNY 79 64 60 E12 30.21S  
TEXARKANA MOSUNNY 75 65 70 E7 30.25R  
SHREVEPORT LGT RAIN 73 65 75 E10 30.23R  
FORT POLK CLOUDY 76 70 81 NE9 30.18S  
LAKE CHARLES CLOUDY 80 77 90 NE9 30.16R  

 
 
 
CLICK HERE TO GO TO PREVIOUS BULLETINS.

The Nexlab LA Page
The Nexlab TX Page
The Nexlab AR Page
The Nexlab OK Page Main Text Page